User: anonymous   Login
Location: The D'Auria's Ocala Star Observatory
(29.0276°N, 82.1742°W)
Time: 01:47:55
(UTC-04:00)
Language:

Abrixas rocket - Orbit

View from above orbital plane
View from above orbital plane
View from above satellite
View from above satellite

Ground track
Ground track

The orbit data is extracted from the following two-line orbital elements,

1 25723U 99022C   15146.11824823  .00005983  00000-0  15434-3 0  9992
2 25723 048.4197 184.9596 0014535 029.2589 002.5985 15.40379936889831
Epoch (UTC): 26 May 2015 02:50:16
Eccentricity: 0.0014535
inclination: 48.4197°
perigee height: 435 km
apogee height: 455 km
right ascension of ascending node: 184.9596°
argument of perigee: 29.2589°
revolutions per day: 15.40379936
mean anomaly at epoch: 2.5985°
orbit number at epoch: 88983

The dashed part of the orbit path shows where the satellite is in the earth's shadow,  

DLR